Regional Weather Roundup
Issued by NWS Kansas City/Pleasant Hill, MO

Home | Current Version | Previous Version | Graphics & Text | Print | Product List | Glossary Off
Versions: 1 2 3 4 5 6 7 8 9 10 11 12 13 14 15 16 17 18 19 20 21 22 23 24 25 26 27 28

000
ASUS43 KEAX 260210
RWREAX

WEATHER ROUNDUP FOR EASTERN KANSAS AND NORTHWEST MISSOURI
NATIONAL WEATHER SERVICE KANSAS CITY/PLEASANT HILL MO
900 PM CDT MON JUL 25 2016

KSZ040-057-103>105-MOZ028-029-037-043-260300-
...KANSAS CITY METROPOLITAN AREA...

CITY           SKY/WX    TMP DP  RH WIND       PRES   REMARKS
K.C. INTL      CLOUDY    80  65  59 E6        30.05R
K.C. DOWNTOWN  CLOUDY    81  64  56 NE7       30.03R
LEES SUMMIT    CLOUDY    80  68  66 E3        30.05R
OLATHE - IXD   PTCLDY    79  68  69 E5        30.05R
OLATHE - OJC   PTCLDY    78  66  66 E5        30.05R
LAWRENCE       PTCLDY    77  69  76 NE5       30.03S

$$

MOZ001>008-011>017-020>025-030>033-038>040-044>046-053-054-260300-
...NORTHERN AND CENTRAL MISSOURI...

CITY           SKY/WX    TMP DP  RH WIND       PRES   REMARKS
ST. JOSEPH     CLOUDY    79  66  64 CALM      30.04S
MOSBY          PTCLDY    75  68  78 CALM      30.04R
WHITEMAN AFB   MOCLDY    76  76 100 SE2       30.03R
CLINTON        MOCLDY    77  73  88 CALM      30.04R
SEDALIA        PTCLDY    78  72  81 CALM      30.05R
WARSAW         NOT AVBL
CHILLICOTHE      N/A     78  72  81 CALM      30.05R
KIRKSVILLE     PTCLDY    75  68  78 N3        30.06R

$$

MOZ041-047>049-056>058-063>065-088>090-097-260300-
...EASTERN AND SOUTHERN MISSOURI...

CITY           SKY/WX    TMP DP  RH WIND       PRES   REMARKS
ST. LOUIS INTL MOCLDY    82  73  74 NE5       30.00R
SPIRIT OF STL  CLOUDY    81  74  79 N3        29.99R
COLUMBIA       CLEAR     75  72  90 N5        30.04R
JEFFERSON CITY CLEAR     78  70  76 N5        30.01S
ROLLA          PTCLDY    76  71  85 N6        30.02S
OSAGE BEACH    MOCLDY    74  73  97 N5        30.04R
SPRINGFIELD    CLEAR     78  72  81 E6        30.03S
BRANSON        MOCLDY    77  72  83 CALM      30.03S
JOPLIN         MOCLDY    78  74  87 NE6       30.03R
WEST PLAINS    CLOUDY    78  71  79 CALM      30.04R

$$

IAZ060-094-KSZ022-034>040-054-083-096-NEZ052-066-093-260300-
...KANSAS...SOUTHEAST NEBRASKA AND IOWA...

CITY           SKY/WX    TMP DP  RH WIND       PRES   REMARKS
TOPEKA           N/A     79  68  69 CALM      30.04R
MANHATTAN      CLEAR     77  68  73 NE5       30.04R
EMPORIA        CLOUDY    76  71  85 E6        30.05R
CHANUTE        CLOUDY    78  73  84 NE6       30.03R
WICHITA        CLOUDY    81  69  67 E9        30.03R
OMAHA          PTCLDY    81  70  69 E5        30.05R
LINCOLN        CLEAR     81  64  56 E6        30.07R
FALLS CITY     CLEAR     77  68  73 E3        30.04S
LAMONI         PTCLDY    74  64  71 CALM      30.06R
DES MOINES     PTCLDY    81  62  52 NE5       30.04R

$$





USA.gov is the U.S. government's official web portal to all federal, state and local government web resources and services.